COSMOS 2477 (745)

Last updated on Aug. 9, 2020, 5:35 a.m. UTC

1 37868U 11064B   20220.96378752  .00000013  00000-0  00000-0 0  9991
2 37868  64.5422 145.4732 0018012 242.1874 203.7967  2.13101830 68189
UTC
Height (km)
Latitude
Longitude
Inclination
Orbital Period
UTC large
Height (km)
Speed (km/s)
/
Latitude / Longitude
Inclination (degrees)
Orbital Period (minutes)
Azimuth
Elevation
Range (km)
Doppler Factor
iOS Compass Heading
iOS Angle

Next 30 passes for location: Hong Kong

Rise time Rise Azimuth (degrees) Set time Set Azimuth (degrees) Duration Max altitude (degrees)

No matching passes for this satellites